When you browse on this site, cookies collect data to enhance your experience and personalize the content and advertising you see.
Visit our Privacy Policy to learn more. By continuing to use the site, you agree to this use of cookies and data.
  • In Austria
  • List of Countries
  • For 7 days
  • Water Temperature
  • Satellite Maps
  • Weather Map
  • News
  • Weather Widgets
  • user-avatar
    Login

    Hourly Weather Guarda

    Today, 21 May, Tuesday

    Time Temperature Precipitation Wind Pressure Humidity
    00:00 +8°C° 0 mm 1 mps 686 mmHg 78%
    01:00 +8°C° 0 mm 1 mps 686 mmHg 78%
    02:00 +8°C° 0 mm 1 mps 686 mmHg 79%
    03:00 +7°C° 0 mm 1 mps 685 mmHg 79%
    04:00 +8°C° 0 mm 1 mps 686 mmHg 78%
    05:00 +8°C° 0 mm 1 mps 686 mmHg 77%
    06:00 +9°C° 0 mm 1 mps 686 mmHg 76%
    07:00 +12°C° 0 mm 1 mps 687 mmHg 68%
    08:00 +14°C° 0 mm 1 mps 687 mmHg 61%
    09:00 +16°C° 0 mm 2 mps 687 mmHg 54%
    10:00 +18°C° 0 mm 2 mps 688 mmHg 49%
    11:00 +20°C° 0 mm 1 mps 688 mmHg 44%
    12:00 +22°C° 0 mm 1 mps 688 mmHg 39%
    13:00 +23°C° 0 mm 1 mps 688 mmHg 38%
    14:00 +23°C° 0 mm 1 mps 688 mmHg 36%
    15:00 +23°C° 0 mm 2 mps 688 mmHg 35%
    16:00 +23°C° 0 mm 2 mps 688 mmHg 37%
    17:00 +21°C° 0 mm 2 mps 688 mmHg 39%
    18:00 +21°C° 0 mm 2 mps 687 mmHg 41%
    19:00 +18°C° 0 mm 2 mps 687 mmHg 51%
    20:00 +16°C° 0 mm 1 mps 687 mmHg 60%
    21:00 +14°C° 0 mm 1 mps 687 mmHg 70%
    22:00 +13°C° 0 mm 1 mps 687 mmHg 75%
    23:00 +12°C° 0 mm 1 mps 687 mmHg 81%

    Tomorrow, 22 May, Wednesday

    Time Temperature Precipitation Wind Pressure Humidity
    00:00 +11°C° 0 mm 1 mps 687 mmHg 86%
    01:00 +11°C° 0 mm 1 mps 687 mmHg 87%
    02:00 +11°C° 0 mm 1 mps 687 mmHg 88%
    03:00 +11°C° 0 mm 1 mps 687 mmHg 89%
    04:00 +11°C° 0 mm 1 mps 687 mmHg 87%
    05:00 +11°C° 0 mm 1 mps 687 mmHg 85%
    06:00 +11°C° 0 mm 1 mps 688 mmHg 83%
    07:00 +14°C° 0 mm 1 mps 688 mmHg 71%
    08:00 +18°C° 0 mm 1 mps 689 mmHg 59%
    09:00 +20°C° 0 mm 1 mps 690 mmHg 47%
    10:00 +22°C° 0 mm 1 mps 690 mmHg 43%
    11:00 +23°C° 0 mm 1 mps 690 mmHg 40%
    12:00 +25°C° 0 mm 1 mps 690 mmHg 36%
    13:00 +25°C° 0 mm 2 mps 690 mmHg 36%
    14:00 +25°C° 0 mm 2 mps 690 mmHg 36%
    15:00 +25°C° 0 mm 2 mps 690 mmHg 36%
    16:00 +24°C° 0 mm 3 mps 689 mmHg 40%
    17:00 +24°C° 0 mm 3 mps 689 mmHg 45%
    18:00 +22°C° 0 mm 3 mps 689 mmHg 50%
    19:00 +19°C° 0 mm 3 mps 689 mmHg 60%
    20:00 +17°C° 0 mm 2 mps 689 mmHg 71%
    21:00 +15°C° 0 mm 2 mps 689 mmHg 81%
    22:00 +14°C° 0 mm 2 mps 689 mmHg 82%
    23:00 +13°C° 0 mm 1 mps 689 mmHg 83%

    Day after tomorrow, 23 May, Thursday

    Time Temperature Precipitation Wind Pressure Humidity
    00:00 +12°C° 0 mm 1 mps 689 mmHg 84%
    01:00 +12°C° 0 mm 1 mps 689 mmHg 84%
    02:00 +12°C° 0 mm 1 mps 688 mmHg 83%
    03:00 +11°C° 0 mm 1 mps 688 mmHg 83%
    04:00 +12°C° 0 mm 1 mps 688 mmHg 82%
    05:00 +12°C° 0 mm 1 mps 688 mmHg 80%
    06:00 +12°C° 0 mm 1 mps 688 mmHg 79%
    07:00 +14°C° 0 mm 1 mps 689 mmHg 69%
    08:00 +16°C° 0 mm 1 mps 690 mmHg 59%
    09:00 +19°C° 0 mm 2 mps 690 mmHg 49%
    10:00 +20°C° 0 mm 2 mps 690 mmHg 44%
    11:00 +21°C° 0 mm 2 mps 690 mmHg 38%
    12:00 +24°C° 0 mm 2 mps 691 mmHg 32%
    13:00 +24°C° 0 mm 3 mps 690 mmHg 33%
    14:00 +25°C° 0 mm 3 mps 690 mmHg 34%
    15:00 +25°C° 0 mm 4 mps 690 mmHg 35%
    16:00 +23°C° 0 mm 4 mps 689 mmHg 42%
    17:00 +22°C° 0 mm 4 mps 689 mmHg 49%
    18:00 +21°C° 0 mm 4 mps 689 mmHg 56%
    19:00 +18°C° 0 mm 4 mps 689 mmHg 64%
    20:00 +16°C° 0 mm 3 mps 689 mmHg 72%
    21:00 +14°C° 0 mm 2 mps 689 mmHg 81%
    22:00 +13°C° 0 mm 2 mps 689 mmHg 82%
    23:00 +13°C° 0 mm 2 mps 689 mmHg 83%

    24 May, Friday

    Time Temperature Precipitation Wind Pressure Humidity
    00:00 +12°C° 0 mm 2 mps 688 mmHg 84%
    01:00 +12°C° 0 mm 2 mps 688 mmHg 83%
    02:00 +10°C° 0 mm 2 mps 688 mmHg 82%
    03:00 +10°C° 0 mm 2 mps 688 mmHg 80%
    04:00 +10°C° 0 mm 3 mps 687 mmHg 78%
    05:00 +10°C° 0 mm 3 mps 687 mmHg 76%
    06:00 +10°C° 0 mm 3 mps 687 mmHg 74%
    07:00 +12°C° 0 mm 4 mps 688 mmHg 67%
    08:00 +13°C° 0 mm 5 mps 688 mmHg 60%
    09:00 +15°C° 0 mm 6 mps 689 mmHg 54%
    10:00 +16°C° 0 mm 6 mps 689 mmHg 47%
    11:00 +19°C° 0 mm 6 mps 689 mmHg 39%
    12:00 +20°C° 0 mm 6 mps 689 mmHg 32%
    13:00 +21°C° 0 mm 6 mps 688 mmHg 31%
    14:00 +22°C° 0 mm 6 mps 688 mmHg 30%
    15:00 +22°C° 0 mm 5 mps 688 mmHg 29%
    16:00 +22°C° 0 mm 5 mps 688 mmHg 31%
    17:00 +21°C° 0 mm 4 mps 688 mmHg 33%
    18:00 +21°C° 0 mm 4 mps 687 mmHg 36%
    19:00 +19°C° 0 mm 4 mps 688 mmHg 41%
    20:00 +17°C° 0 mm 4 mps 688 mmHg 46%
    21:00 +14°C° 0 mm 4 mps 688 mmHg 51%
    22:00 +13°C° 0 mm 4 mps 688 mmHg 57%
    23:00 +12°C° 0 mm 4 mps 688 mmHg 63%

    25 May, Saturday

    Time Temperature Precipitation Wind Pressure Humidity
    00:00 +10°C° 0 mm 5 mps 688 mmHg 69%
    01:00 +9°C° 0 mm 5 mps 688 mmHg 71%
    02:00 +9°C° 0 mm 5 mps 688 mmHg 72%
    03:00 +8°C° 0 mm 5 mps 688 mmHg 74%
    04:00 +8°C° 0 mm 5 mps 688 mmHg 75%
    05:00 +8°C° 0 mm 5 mps 688 mmHg 77%
    06:00 +8°C° 0 mm 4 mps 688 mmHg 78%
    07:00 +10°C° 0 mm 5 mps 688 mmHg 70%
    08:00 +12°C° 0 mm 5 mps 689 mmHg 62%
    09:00 +14°C° 0 mm 6 mps 689 mmHg 54%
    10:00 +16°C° 0 mm 6 mps 689 mmHg 49%
    11:00 +17°C° 0 mm 6 mps 689 mmHg 43%
    12:00 +20°C° 0 mm 6 mps 689 mmHg 38%
    13:00 +21°C° 0 mm 6 mps 689 mmHg 37%
    14:00 +21°C° 0 mm 6 mps 689 mmHg 35%
    15:00 +22°C° 0 mm 6 mps 688 mmHg 34%
    16:00 +21°C° 0 mm 6 mps 688 mmHg 36%
    17:00 +20°C° 0 mm 6 mps 688 mmHg 38%
    18:00 +20°C° 0 mm 5 mps 688 mmHg 40%
    19:00 +17°C° 0 mm 5 mps 689 mmHg 46%
    20:00 +15°C° 0 mm 4 mps 689 mmHg 51%
    21:00 +13°C° 0 mm 4 mps 689 mmHg 57%
    22:00 +12°C° 0 mm 4 mps 689 mmHg 61%
    23:00 +11°C° 0 mm 4 mps 689 mmHg 65%

    26 May, Sunday

    Time Temperature Precipitation Wind Pressure Humidity
    00:00 +9°C° 0 mm 5 mps 690 mmHg 69%
    01:00 +10°C° 0 mm 4 mps 689 mmHg 72%
    02:00 +8°C° 0 mm 4 mps 689 mmHg 74%
    03:00 +7°C° 0 mm 4 mps 689 mmHg 76%
    04:00 +7°C° 0 mm 4 mps 689 mmHg 78%
    05:00 +7°C° 0 mm 4 mps 690 mmHg 79%
    06:00 +7°C° 0 mm 4 mps 690 mmHg 80%
    07:00 +9°C° 0 mm 5 mps 690 mmHg 73%
    08:00 +12°C° 0 mm 5 mps 690 mmHg 65%
    09:00 +15°C° 0 mm 5 mps 691 mmHg 58%
    10:00 +17°C° 0 mm 5 mps 691 mmHg 52%
    11:00 +20°C° 0 mm 5 mps 691 mmHg 46%
    12:00 +22°C° 0 mm 5 mps 691 mmHg 40%
    13:00 +23°C° 0 mm 5 mps 691 mmHg 37%
    14:00 +23°C° 0 mm 5 mps 691 mmHg 34%
    15:00 +25°C° 0 mm 5 mps 690 mmHg 31%
    16:00 +25°C° 0 mm 4 mps 690 mmHg 32%
    17:00 +23°C° 0 mm 4 mps 690 mmHg 34%
    18:00 +23°C° 0 mm 4 mps 689 mmHg 35%
    19:00 +20°C° 0 mm 3 mps 689 mmHg 41%
    20:00 +18°C° 0 mm 2 mps 689 mmHg 46%
    21:00 +16°C° 0 mm 2 mps 689 mmHg 52%
    22:00 +15°C° 0 mm 2 mps 689 mmHg 56%
    23:00 +14°C° 0 mm 2 mps 689 mmHg 60%
    Show more